EUS16TU EGPH-EBBR

Flight info

Callsign EUS16TU
Flight time N/A
Altitude 25000
Route TLA Y96 OTBUN/N0436F390 DCT NATEB DCT GODOS DCT ALFEN DCT ORCAV Z310 WOODY
Aircraft A320/M-SDE3FGHIRWY/LB1

Departure

Time 2026-05-01 14:25
Airport Edinburgh Airport (EGPH)

Arrival

Time N/A
Airport Brussels Airport (EBBR)
Time Latitude Longitude Altitude Speed Heading
2026-05-01 14:04 55.94657 -3.36612 115 ft 0 kts 89°
2026-05-01 14:04 55.94657 -3.36615 115 ft 0 kts 89°
2026-05-01 14:16 55.94657 -3.36646 116 ft 4 kts 89°
2026-05-01 14:16 55.94656 -3.36692 114 ft 4 kts 85°
2026-05-01 14:16 55.94647 -3.36726 112 ft 4 kts 20°
2026-05-01 14:17 55.94622 -3.36734 113 ft 2 kts 359°
2026-05-01 14:17 55.94621 -3.36734 113 ft 0 kts 359°
2026-05-01 14:20 55.94634 -3.36734 113 ft 6 kts 359°
2026-05-01 14:20 55.94683 -3.36736 116 ft 6 kts 359°
2026-05-01 14:21 55.94723 -3.36737 116 ft 9 kts 359°
2026-05-01 14:21 55.94774 -3.36770 114 ft 6 kts 332°
2026-05-01 14:21 55.94806 -3.36777 116 ft 5 kts 357°
2026-05-01 14:22 55.94939 -3.36827 115 ft 8 kts 12°
2026-05-01 14:22 55.94975 -3.36753 114 ft 11 kts 59°
2026-05-01 14:22 55.95014 -3.36637 113 ft 11 kts 58°
2026-05-01 14:22 55.95058 -3.36507 114 ft 13 kts 59°
2026-05-01 14:23 55.95109 -3.36357 115 ft 15 kts 58°
2026-05-01 14:23 55.95167 -3.36184 113 ft 18 kts 59°
2026-05-01 14:23 55.95234 -3.35986 116 ft 20 kts 58°
2026-05-01 14:23 55.95307 -3.35769 113 ft 22 kts 59°
2026-05-01 14:24 55.95390 -3.35523 114 ft 23 kts 59°
2026-05-01 14:24 55.95486 -3.35424 115 ft 16 kts 332°
2026-05-01 14:24 55.95574 -3.35545 113 ft 15 kts 284°
2026-05-01 14:24 55.95506 -3.35758 113 ft 42 kts 239°
2026-05-01 14:25 55.95208 -3.36637 114 ft 119 kts 239°
2026-05-01 14:25 55.94683 -3.38205 203 ft 167 kts 240°
2026-05-01 14:25 55.94099 -3.40034 897 ft 171 kts 240°
2026-05-01 14:25 55.93516 -3.41893 1771 ft 171 kts 238°
2026-05-01 14:26 55.92928 -3.43712 2603 ft 170 kts 236°
2026-05-01 14:26 55.91520 -3.47408 3687 ft 202 kts 235°
2026-05-01 14:26 55.90720 -3.49656 3885 ft 227 kts 236°
2026-05-01 14:27 55.89859 -3.52166 4783 ft 248 kts 237°
2026-05-01 14:27 55.88960 -3.54862 5607 ft 257 kts 234°
2026-05-01 14:27 55.87694 -3.57081 5907 ft 256 kts 210°
2026-05-01 14:28 55.84256 -3.57471 6815 ft 264 kts 159°
2026-05-01 14:28 55.82711 -3.55598 7826 ft 272 kts 141°
2026-05-01 14:28 55.81304 -3.53321 8816 ft 275 kts 143°
2026-05-01 14:28 55.79681 -3.51517 9764 ft 276 kts 160°
2026-05-01 14:29 55.77844 -3.50418 10462 ft 287 kts 165°
2026-05-01 14:29 55.75856 -3.49335 10875 ft 308 kts 165°
2026-05-01 14:30 55.69537 -3.45911 13296 ft 322 kts 165°
2026-05-01 14:30 55.67391 -3.44743 14099 ft 325 kts 165°
2026-05-01 14:30 55.65212 -3.43560 14845 ft 329 kts 165°
2026-05-01 14:31 55.60792 -3.41159 16368 ft 335 kts 165°
2026-05-01 14:31 55.58555 -3.39949 17097 ft 338 kts 165°
2026-05-01 14:31 55.56318 -3.38740 17814 ft 342 kts 165°
2026-05-01 14:31 55.54056 -3.37362 18557 ft 348 kts 158°
2026-05-01 14:32 55.51965 -3.35021 19206 ft 357 kts 142°
2026-05-01 14:32 55.50312 -3.31776 19814 ft 366 kts 127°
2026-05-01 14:32 55.49172 -3.27702 20407 ft 378 kts 111°
2026-05-01 14:32 55.48602 -3.23127 20997 ft 385 kts 104°
2026-05-01 14:33 55.48116 -3.18466 21607 ft 388 kts 104°
2026-05-01 14:33 55.47624 -3.13783 22253 ft 390 kts 104°
2026-05-01 14:33 55.47123 -3.09062 22859 ft 393 kts 104°
2026-05-01 14:33 55.46614 -3.04298 23467 ft 397 kts 105°
2026-05-01 14:34 55.45893 -2.99622 23984 ft 396 kts 114°
2026-05-01 14:34 55.44732 -2.95237 24479 ft 395 kts 123°
2026-05-01 14:34 55.43378 -2.91008 24985 ft 397 kts 123°
2026-05-01 14:34 55.42019 -2.86766 25477 ft 400 kts 123°
2026-05-01 14:35 55.40650 -2.82488 25966 ft 402 kts 123°
2026-05-01 14:35 55.39273 -2.78183 26434 ft 405 kts 123°
2026-05-01 14:35 55.37885 -2.73850 26882 ft 407 kts 123°
2026-05-01 14:35 55.36494 -2.69507 27336 ft 410 kts 123°
2026-05-01 14:36 55.35092 -2.65134 27765 ft 412 kts 123°
2026-05-01 14:36 55.33678 -2.60731 28198 ft 415 kts 123°
2026-05-01 14:36 55.32254 -2.56309 28626 ft 417 kts 123°
2026-05-01 14:36 55.30816 -2.51858 29052 ft 420 kts 123°
2026-05-01 14:37 55.29367 -2.47391 29463 ft 422 kts 123°
2026-05-01 14:37 55.27910 -2.42904 29857 ft 425 kts 123°
2026-05-01 14:37 55.26443 -2.38383 30238 ft 427 kts 123°
2026-05-01 14:37 55.24967 -2.33837 30562 ft 430 kts 123°
2026-05-01 14:38 55.23482 -2.29281 30864 ft 432 kts 123°
2026-05-01 14:38 55.21985 -2.24697 31154 ft 435 kts 123°
2026-05-01 14:38 55.20482 -2.20102 31436 ft 437 kts 123°
2026-05-01 14:38 55.18963 -2.15473 31725 ft 439 kts 123°
2026-05-01 14:39 55.17442 -2.10841 32076 ft 439 kts 123°
2026-05-01 14:39 55.15919 -2.06215 32485 ft 438 kts 123°
2026-05-01 14:39 55.14398 -2.01602 32896 ft 437 kts 123°
2026-05-01 14:39 55.12888 -1.97030 33301 ft 437 kts 123°
2026-05-01 14:40 55.11385 -1.92484 33705 ft 436 kts 123°
2026-05-01 14:40 55.09864 -1.87895 34111 ft 435 kts 123°
2026-05-01 14:40 55.08352 -1.83339 34474 ft 435 kts 123°
2026-05-01 14:40 55.06835 -1.78784 34803 ft 434 kts 123°
2026-05-01 14:41 55.05312 -1.74223 35127 ft 434 kts 123°
2026-05-01 14:41 55.03794 -1.69684 35432 ft 433 kts 123°
2026-05-01 14:41 55.02304 -1.65122 35729 ft 434 kts 122°
2026-05-01 14:41 55.00846 -1.60526 36019 ft 433 kts 122°
2026-05-01 14:42 54.99408 -1.55909 36305 ft 433 kts 122°
2026-05-01 14:42 54.97982 -1.51299 36600 ft 433 kts 122°
2026-05-01 14:42 54.96554 -1.46698 36884 ft 432 kts 122°
2026-05-01 14:42 54.95116 -1.42110 37073 ft 433 kts 122°
2026-05-01 14:43 54.93673 -1.37542 37114 ft 429 kts 122°
2026-05-01 14:43 54.90781 -1.28480 37113 ft 427 kts 122°
2026-05-01 14:44 54.87893 -1.19472 37114 ft 427 kts 122°
2026-05-01 14:44 54.83563 -1.05996 37107 ft 426 kts 123°
2026-05-01 14:45 54.79214 -0.92554 37125 ft 426 kts 123°
2026-05-01 14:46 54.76310 -0.83593 37134 ft 426 kts 123°
2026-05-01 14:46 54.71951 -0.70182 37130 ft 426 kts 123°
2026-05-01 14:47 54.69032 -0.61277 37142 ft 426 kts 123°
2026-05-01 14:48 54.64645 -0.47969 37146 ft 426 kts 123°
2026-05-01 14:48 54.60222 -0.34576 37154 ft 426 kts 123°
2026-05-01 14:49 54.54340 -0.16908 37155 ft 426 kts 123°
2026-05-01 14:50 54.48426 0.00749 37140 ft 426 kts 124°
2026-05-01 14:51 54.43967 0.13950 37161 ft 425 kts 124°
2026-05-01 14:52 54.39511 0.27079 37168 ft 424 kts 124°
2026-05-01 14:53 54.35051 0.40161 37165 ft 424 kts 124°
2026-05-01 14:53 54.32064 0.48874 37172 ft 423 kts 124°
2026-05-01 14:54 54.29077 0.57565 37162 ft 423 kts 124°
2026-05-01 14:54 54.26109 0.66174 37172 ft 422 kts 125°
2026-05-01 14:55 54.23103 0.74851 37168 ft 422 kts 125°
2026-05-01 14:55 54.20110 0.83482 37169 ft 421 kts 125°
2026-05-01 14:56 54.17129 0.92022 37174 ft 421 kts 125°
2026-05-01 14:56 54.14128 1.00598 37178 ft 421 kts 125°
2026-05-01 14:57 54.11123 1.09171 37156 ft 421 kts 125°
2026-05-01 14:57 54.06598 1.21986 37163 ft 421 kts 125°
2026-05-01 14:58 54.03574 1.30527 37176 ft 421 kts 125°
2026-05-01 14:58 54.01056 1.37625 37179 ft 421 kts 125°
2026-05-01 14:59 53.98017 1.46152 37176 ft 422 kts 125°
2026-05-01 14:59 53.94977 1.54654 37186 ft 422 kts 125°
2026-05-01 15:00 53.90394 1.67408 37175 ft 422 kts 125°
2026-05-01 15:01 53.87336 1.75883 37182 ft 422 kts 125°
2026-05-01 15:01 53.84270 1.84351 37183 ft 422 kts 125°
2026-05-01 15:02 53.81197 1.92819 37190 ft 422 kts 125°
2026-05-01 15:02 53.78115 2.01289 37192 ft 422 kts 125°
2026-05-01 15:03 53.75029 2.09738 37183 ft 422 kts 125°
2026-05-01 15:03 53.71931 2.18171 37192 ft 423 kts 125°
2026-05-01 15:04 53.68824 2.26590 37195 ft 423 kts 125°
2026-05-01 15:04 53.65718 2.35014 37209 ft 423 kts 125°
2026-05-01 15:05 53.62607 2.43413 37218 ft 422 kts 125°
2026-05-01 15:05 53.59490 2.51799 37217 ft 422 kts 125°
2026-05-01 15:06 53.56374 2.60158 37200 ft 422 kts 125°
2026-05-01 15:06 53.53243 2.68512 37209 ft 422 kts 125°
2026-05-01 15:07 53.50103 2.76864 37212 ft 423 kts 125°
2026-05-01 15:07 53.46978 2.85151 37217 ft 422 kts 126°
2026-05-01 15:08 53.43811 2.93527 37225 ft 422 kts 126°
2026-05-01 15:08 53.40682 3.01767 37214 ft 422 kts 126°
2026-05-01 15:09 53.37533 3.10062 37211 ft 422 kts 125°
2026-05-01 15:09 53.34370 3.18357 37209 ft 422 kts 125°
2026-05-01 15:10 53.31199 3.26622 37209 ft 422 kts 126°
2026-05-01 15:10 53.26419 3.39017 37223 ft 423 kts 127°
2026-05-01 15:11 53.20200 3.49117 37238 ft 416 kts 144°
2026-05-01 15:12 53.15633 3.55054 37244 ft 416 kts 144°
2026-05-01 15:12 53.08780 3.63965 37224 ft 418 kts 144°
2026-05-01 15:14 52.97309 3.78759 37223 ft 419 kts 144°
2026-05-01 15:14 52.90394 3.87647 37221 ft 420 kts 144°
2026-05-01 15:15 52.81134 3.99459 37234 ft 420 kts 144°
2026-05-01 15:16 52.71865 4.11242 37221 ft 421 kts 144°
2026-05-01 15:18 52.60222 4.25960 37221 ft 422 kts 144°
2026-05-01 15:19 52.50879 4.37669 37227 ft 422 kts 144°
2026-05-01 15:19 52.43873 4.46433 37227 ft 422 kts 144°
2026-05-01 15:20 52.36850 4.55166 37230 ft 422 kts 144°
2026-05-01 15:21 52.32176 4.60952 37232 ft 421 kts 144°
2026-05-01 15:21 52.27531 4.66699 37227 ft 421 kts 144°
2026-05-01 15:22 52.20511 4.75355 37199 ft 423 kts 144°
2026-05-01 15:22 52.15805 4.81130 37199 ft 424 kts 144°
2026-05-01 15:23 52.11040 4.86928 37201 ft 425 kts 145°
2026-05-01 15:23 52.06338 4.92627 37202 ft 425 kts 144°
2026-05-01 15:24 52.01534 4.98240 37195 ft 425 kts 153°
2026-05-01 15:24 51.98827 5.00105 37198 ft 423 kts 166°
2026-05-01 15:24 51.95935 5.00882 37197 ft 420 kts 180°
2026-05-01 15:25 51.93045 5.00543 37201 ft 417 kts 192°
2026-05-01 15:25 51.90430 4.99274 37202 ft 416 kts 201°
2026-05-01 15:25 51.85008 4.95912 37200 ft 418 kts 201°
2026-05-01 15:26 51.79568 4.92588 37198 ft 419 kts 201°
2026-05-01 15:26 51.74110 4.89249 37204 ft 419 kts 201°
2026-05-01 15:27 51.68655 4.85913 37207 ft 420 kts 201°
2026-05-01 15:28 51.60457 4.80914 37224 ft 420 kts 202°
2026-05-01 15:28 51.57911 4.78634 37218 ft 420 kts 217°
2026-05-01 15:28 51.55813 4.75368 37218 ft 421 kts 232°
2026-05-01 15:29 51.51097 4.63458 37216 ft 422 kts 237°
2026-05-01 15:30 51.44837 4.47482 37215 ft 423 kts 236°
2026-05-01 15:31 51.37071 4.33958 37215 ft 418 kts 205°
2026-05-01 15:31 51.31819 4.29963 37213 ft 419 kts 205°